Tracking 35274 objects as of 12-Sep-2026
HD Live streaming from Space Station
objects crossing your sky now

FALCON 9 DEB


FALCON 9 DEB is no longer on orbit


NORAD ID: 47410
Int'l Code: 2021-005BP
Launch date: January 20, 2021
Source: United States (US)
Launch site: AIR FORCE EASTERN TEST RANGE (AFETR)
Decay date: 2021-02-20

Note: This is SATELLITE DEBRIS
Your satellite tracking list
Your tracking list is empty




NASA's NSSDC Master Catalog

Two Line Element Set (TLE):
1 47410U 21005BP  21051.98915860  .08132560  12433-4  44736-3 0  9998
2 47410  53.0442  47.6925 0002746 282.6476  77.4264 16.42241420  5385
Source of the keplerian elements: AFSPC